Terug naar catalogus

STARLINK-37817

ActiefCommunicatieSSO
NORAD 69480·PAYLOAD·🇺🇸 United States

Gelanceerd Jun 11, 2026 vanaf Vandenberg Space Force Base

Loading…

Volgende Passages (komende 24 uur)

TLE

VersSource: CelesTrak SupGP

Epoch: Sep 15, 2026, 04:16 UTC

1 69480C 26131C   26258.17826389 -.00067288  00000+0 -20891-2 0  2589
2 69480  97.2831 279.0652 0001480  88.2632  75.2283 15.33468531    19

Volg STARLINK-37817 in realtime met AllMySat

Download on the App Store